Back to catalog

STARLINK-34785

AliveCommunicationsVLEO
NORAD 65354·PAYLOAD·🇺🇸 United States

Launched Aug 28, 2025 from Cape Canaveral Space Force Station

Loading…

Next Passes (next 24 hours)

TLE

FreshSource: CelesTrak SupGP

Epoch: Sep 14, 2026, 14:47 UTC

1 65354C 25190D   26257.61645833 -.00042107  00000+0 -12446-2 0  2579
2 65354  53.1601   7.2530 0001236  69.7866 104.5446 15.34398954    18

Track STARLINK-34785 in real time with AllMySat

Download on the App Store